Regional Weather Roundup
Issued by NWS Goodland, KS

Home | Current Version | Previous Version | Graphics & Text | Print | Product List | Glossary On
Versions: 1 2 3 4 5 6 7 8 9 10 11 12 13 14 15 16 17 18 19 20 21 22 23 24 25 26 27 28 29 30 31 32 33 34 35 36 37 38 39 40 41 42 43 44 45 46 47 48 49 50
000
ASUS43 KGLD 212108
RWRGLD

GOODLAND FORECAST AREA HOURLY WEATHER ROUNDUP
NATIONAL WEATHER SERVICE GOODLAND KS
200 PM MST SUN JAN 21 2018

...OFFICIAL OBSERVATIONS...

CITY           SKY/WX    TMP DP  RH WIND       PRES   REMARKS
GOODLAND KS    LGT SNOW  30  29  96 N24G36    29.62F FOG     WCI  16
HILL CITY KS   LGT SNOW  37  36  96 NE18      29.61F VSB 1
IMPERIAL NEB   LGT SNOW  31  30  96 N22G38    29.71S FOG     WCI  18
MCCOOK NEB     LGT SNOW  32  32 100 NE22G31   29.66S FOG     WCI  19
AKRON CO       FOG       26  24  92 N25G35    29.77R VSB 1/4 WCI  11
BURLINGTON CO  SNOW      29  27  92 N28G39    29.66R VSB 1/2 WCI  14
LIMON CO       LGT SNOW  25  23  92 N28G45    29.72R VSB 3/4 WCI   9
$$

...UNOFFICIAL OBSERVATIONS...

CITY           SKY/WX    TMP DP  RH WIND       PRES   REMARKS
COLBY KS       MIX PCPN  32  32 100 N14       29.64R
NORTON KS      DRIZZLE   34  28  80 N13G23    29.63
SHARON SPRINGS   N/A     31  30  95 N12         N/A
KIT CARSON CO    N/A     27  24  89 MISG        N/A
YUMA CO        SNOW      28  27  93 N30       29.73S VSB 1/4 WCI  13
$$




USA.gov is the U.S. government's official web portal to all federal, state and local government web resources and services.